Regional Weather Roundup
Issued by NWS Lake Charles, LA

Home | Current Version | Previous Version | Text Only | Print | Product List | Glossary On
Versions: 1 2 3 4 5 6 7 8 9 10 11 12 13 14 15 16 17 18 19 20 21 22 23 24 25 26 27 28 29 30 31 32 33 34 35 36 37 38 39 40 41 42 43 44 45 46 47 48 49 50
000
ASUS44 KLCH 201010
RWRLCH
RWRLCH
REGIONAL WEATHER ROUNDUP
NATIONAL WEATHER SERVICE LAKE CHARLES LA
500 AM CDT SAT SEP 20 2014

Note: "fair" indicates few or no clouds below 12,000 feet with no
significant weather and/or obstructions to visibility.


ACROSS SOUTHEAST TEXAS

CITY           SKY/WX    TMP DP  RH WIND       PRES   REMARKS
BEAUMONT       CLEAR     74  72  93 NE6       29.92R
BEAUMONT CITY    N/A     72  71  99 NE3       29.92S
ORANGE         SUNNY    N/A N/A N/A NE3       29.94S
JASPER         CLEAR     66  66  97 CALM      29.97S FOG
$$

ACROSS CENTRAL LOUISIANA

CITY           SKY/WX    TMP DP  RH WIND       PRES   REMARKS
LEESVILLE      CLEAR     69  68  96 CALM      29.96S
FULLERTON        N/A     69  66  90 CALM      29.94S FOG
ALEXANDRIA INT FOG       67  67 100 CALM      29.95S VSB 1
ESLER FIELD    CLEAR     68  65  90 CALM      29.97R
DERIDDER         N/A     69  68  96 CALM      29.97S FOG
OAKDALE        SUNNY     65  64  96 CALM      29.95S FOG
OPELOUSAS        N/A     68  68  99 CALM      29.94S
$$

ACROSS SOUTHWEST AND SOUTH CENTRAL LOUISIANA

CITY           SKY/WX    TMP DP  RH WIND       PRES   REMARKS
SULPHUR        SUNNY     74  71  92 NE5       29.94S
LAKE CHARLES   CLEAR     71  69  93 NE5       29.93S
CHENNAULT INT  NOT AVBL
CAMERON PHI      N/A     73  72  94 E7        29.95S
DEQUINCY         N/A     67  66  99 CALM      29.94F
JENNINGS         N/A     69  68  98 CALM      29.94S
LAFAYETTE      CLEAR     71  70  96 NE5       29.93S
NEW IBERIA     CLEAR     73  70  90 N7        29.93S
ABBEVILLE        N/A     68  67  99 CALM      29.93S
PATTERSON      CLEAR     72  68  88 NE6       29.94S
SALT POINT       N/A     75  71  87 CALM      29.90S
$$

SELECTED SITES ACROSS THE REGION

CITY           SKY/WX    TMP DP  RH WIND       PRES   REMARKS
HOUSTON BUSH   PTCLDY    73  72  96 NE7       29.91F
HOUSTON HOBBY  PTCLDY    75  74  96 NE6       29.90F
GALVESTON      PTCLDY    80  74  81 E8        29.90S
COLLEGE STAT   MOCLDY    73  72  96 E6        29.93F
CONROE         CLEAR     72  71  97 CALM      29.94S
HUNTSVILLE     CLOUDY    71  70  96 CALM      29.94F FOG
LUFKIN         CLEAR     73  68  84 NE3       29.95S
SHREVEPORT     CLEAR     70  68  93 CALM      29.97R
MONROE         CLEAR     69  67  93 CALM      29.99R
NATCHEZ MS     CLEAR     68  66  94 CALM      29.98S
BATON ROUGE    CLEAR     70  67  90 NE6       29.95R
N.O. INTL ARPT CLEAR     79  71  76 E6        29.93R
SLIDELL        CLEAR     72  68  87 NE5       29.94R
$$

MARINE REPORTS

STATION/POSITION TIME  TEMP    WIND        PRES    VSBY  WAVE
                       AIR SEA DIR/SP/G                  HT/PER
                 (UTC) (F)     (DEG/KT/KT) (MB)    (MI)  (FT/S)
BUOY 30 S HIGH I 1000   80 83  100/ 14/ 16 1011.5F         4/ 5
SEA RIM ST PARK  1000   74      60/  6/  8 1013.4R
PORT ARTHUR      1000      83   70/  4/  8 1013.2R
SABINE PASS N    1000   75 82   50/  6/  9 1013.1R
TEXAS POINT      1000   75 81   40/ 10/ 12 1013.1R
CALCASIEU PASS   1000   74 81   80/  8/ 10 1014.1F
LK CHARLES BEACH 1000   73 83              1013.6S
MARSH ISLAND     NOT AVBL
FRESH WATER LOCK 1000   75 82   10/  5/  6 1012.8S
AMERADA PASS     1000   74 82   60/  5/  7 1012.4F
$$



USA.gov is the U.S. government's official web portal to all federal, state and local government web resources and services.